Location: Unspecified
(0.0000°N, 0.0000°E)
Time: 03:15:04
(UTC+00:00)

Vanguard 1 - Pass Details

Date: 12 December 2017
Orbit: 650 x 3833 km, 34.2° (Epoch: 21 July)

Event Time Altitude Azimuth Distance (km) Brightness Sun altitude
Rises 03:15:27 0° 216° (SW) 5,875 14.0 -35.9°
Reaches altitude 10° 03:19:26 10° 206° (SSW) 5,281 13.8 -35.0°
Maximum altitude 03:34:49 36° 144° (SE) 4,641 13.8 -31.6°
Drops below altitude 10° 03:54:59 10° 85° (E) 6,921 15.1 -27.1°
Sets 04:01:06 0° 77° (ENE) 7,833 15.4 -25.7°
